Time,TemperatureF,DewpointF,PressureIn,WindDirection,WindDirectionDegrees,WindSpeedMPH,WindSpeedGustMPH,Humidity,HourlyPrecipIn,Conditions,Clouds,dailyrainin,SoftwareType,DateUTC
2014-04-21 00:01:00,49.1,36.2,30.13,North,0,0.0,0.0,61,0.00,,,0.00,open2300-1.11,2014-04-21 07:01:00,
2014-04-21 00:16:00,48.7,36.7,30.13,North,0,0.0,0.0,63,0.00,,,0.00,open2300-1.11,2014-04-21 07:16:00,
2014-04-21 00:31:00,48.4,36.4,30.14,North,0,0.0,0.0,63,0.00,,,0.00,open2300-1.11,2014-04-21 07:31:00,
2014-04-21 00:46:00,48.0,36.0,30.14,North,0,0.0,0.0,63,0.00,,,0.00,open2300-1.11,2014-04-21 07:46:00,
2014-04-21 01:05:00,47.7,36.8,30.13,North,0,0.0,0.0,66,0.00,,,0.00,open2300-1.11,2014-04-21 08:05:00,
2014-04-21 01:16:00,47.3,36.5,30.13,North,0,0.0,0.0,66,0.00,,,0.00,open2300-1.11,2014-04-21 08:16:00,
2014-04-21 01:31:00,47.1,36.3,30.12,North,0,0.0,0.0,66,0.00,,,0.00,open2300-1.11,2014-04-21 08:31:00,
2014-04-21 01:46:00,46.9,36.1,30.11,North,0,0.0,0.0,66,0.00,,,0.00,open2300-1.11,2014-04-21 08:46:00,
2014-04-21 02:01:00,46.8,36.4,30.12,North,0,0.0,0.0,67,0.00,,,0.00,open2300-1.11,2014-04-21 09:01:00,
2014-04-21 02:16:00,46.6,36.2,30.11,North,0,0.0,0.0,67,0.00,,,0.00,open2300-1.11,2014-04-21 09:16:00,
2014-04-21 02:31:00,46.4,36.0,30.11,North,0,0.0,0.0,67,0.00,,,0.00,open2300-1.11,2014-04-21 09:31:00,
2014-04-21 02:46:00,46.2,36.2,30.11,North,0,0.0,0.0,68,0.00,,,0.00,open2300-1.11,2014-04-21 09:46:00,
2014-04-21 03:01:00,46.2,36.6,30.11,North,0,0.0,0.0,69,0.00,,,0.00,open2300-1.11,2014-04-21 10:01:00,
2014-04-21 03:16:00,46.2,36.6,30.10,North,0,0.0,0.0,69,0.00,,,0.00,open2300-1.11,2014-04-21 10:16:00,
2014-04-21 03:31:00,46.2,37.4,30.10,North,0,0.0,0.0,71,0.00,,,0.00,open2300-1.11,2014-04-21 10:31:00,
2014-04-21 03:46:00,46.2,37.0,30.11,North,0,0.0,0.0,70,0.00,,,0.00,open2300-1.11,2014-04-21 10:46:00,
2014-04-21 04:01:00,46.0,36.9,30.09,North,0,0.0,0.0,70,0.00,,,0.00,open2300-1.11,2014-04-21 11:01:00,
2014-04-21 04:16:00,46.0,37.2,30.09,North,0,0.0,0.0,71,0.00,,,0.00,open2300-1.11,2014-04-21 11:16:00,
2014-04-21 04:31:00,46.0,37.2,30.08,North,0,0.0,0.0,71,0.00,,,0.00,open2300-1.11,2014-04-21 11:31:00,
2014-04-21 04:46:00,45.9,37.4,30.09,North,0,0.0,0.0,72,0.00,,,0.00,open2300-1.11,2014-04-21 11:46:00,
2014-04-21 05:01:00,46.0,37.2,30.08,North,0,0.0,0.0,71,0.00,,,0.00,open2300-1.11,2014-04-21 12:01:00,
2014-04-21 05:16:00,45.7,37.2,30.08,North,0,0.0,0.0,72,0.00,,,0.00,open2300-1.11,2014-04-21 12:16:00,
2014-04-21 05:31:00,45.5,37.0,30.08,North,0,0.0,0.0,72,0.00,,,0.00,open2300-1.11,2014-04-21 12:31:00,
2014-04-21 05:46:00,45.3,37.2,30.07,North,0,0.0,0.0,73,0.00,,,0.00,open2300-1.11,2014-04-21 12:46:00,
2014-04-21 06:01:00,45.1,37.0,30.07,North,0,0.0,0.0,73,0.00,,,0.00,open2300-1.11,2014-04-21 13:01:00,
2014-04-21 06:16:00,45.1,37.0,30.06,North,0,0.0,0.0,73,0.00,,,0.00,open2300-1.11,2014-04-21 13:16:00,
2014-04-21 06:32:00,45.1,37.3,30.07,North,0,0.0,0.0,74,0.00,,,0.00,open2300-1.11,2014-04-21 13:32:00,
2014-04-21 06:47:00,45.3,37.5,30.08,North,0,0.0,0.0,74,0.00,,,0.00,open2300-1.11,2014-04-21 13:47:00,
2014-04-21 07:01:00,45.9,37.7,30.08,North,0,0.0,0.0,73,0.00,,,0.00,open2300-1.11,2014-04-21 14:01:00,
2014-04-21 07:16:00,46.6,38.1,30.08,North,0,0.0,0.0,72,0.00,,,0.00,open2300-1.11,2014-04-21 14:16:00,
2014-04-21 07:31:00,46.9,38.4,30.07,North,0,0.0,0.0,72,0.00,,,0.00,open2300-1.11,2014-04-21 14:31:00,
2014-04-21 07:46:00,46.9,38.0,30.08,North,0,0.0,0.0,71,0.00,,,0.00,open2300-1.11,2014-04-21 14:46:00,
2014-04-21 08:01:00,47.1,38.2,30.07,North,0,0.0,0.0,71,0.00,,,0.00,open2300-1.11,2014-04-21 15:01:00,
2014-04-21 08:16:00,47.5,38.5,30.07,North,0,0.0,0.0,71,0.00,,,0.00,open2300-1.11,2014-04-21 15:16:00,
2014-04-21 08:31:00,47.8,38.9,30.06,North,0,0.0,0.0,71,0.00,,,0.00,open2300-1.11,2014-04-21 15:31:00,
2014-04-21 08:46:00,48.2,38.8,30.06,North,0,0.0,0.0,70,0.00,,,0.00,open2300-1.11,2014-04-21 15:46:00,
2014-04-21 09:01:00,48.6,39.2,30.05,North,0,0.0,0.0,70,0.00,,,0.00,open2300-1.11,2014-04-21 16:01:00,
2014-04-21 09:16:00,49.1,39.7,30.04,North,0,0.0,0.0,70,0.00,,,0.00,open2300-1.11,2014-04-21 16:16:00,
2014-04-21 09:31:00,49.6,39.9,30.04,North,0,0.0,0.0,69,0.00,,,0.00,open2300-1.11,2014-04-21 16:31:00,